Previsão horária em Cemer

Hoje, 30 Julho, Sexta-feira

Tempo Temperatura Precipitação Vento Pressão Humidade
00:00 +11°C° 0 mm 1 m/s 588 mmHg 90%
01:00 +11°C° 0 mm 1 m/s 588 mmHg 89%
02:00 +11°C° 0 mm 1 m/s 587 mmHg 88%
03:00 +11°C° 0 mm 1 m/s 587 mmHg 87%
04:00 +10°C° 0 mm 0 m/s 587 mmHg 85%
05:00 +11°C° 0 mm 0 m/s 588 mmHg 84%
06:00 +11°C° 0 mm 0 m/s 588 mmHg 82%
07:00 +14°C° 0 mm 1 m/s 588 mmHg 77%
08:00 +15°C° 0 mm 1 m/s 589 mmHg 73%
09:00 +16°C° 0 mm 2 m/s 589 mmHg 68%
10:00 +16°C° 0.1 mm 2 m/s 589 mmHg 70%
11:00 +17°C° 0.1 mm 2 m/s 589 mmHg 71%
12:00 +17°C° 0.1 mm 2 m/s 589 mmHg 72%
13:00 +17°C° 0.3 mm 2 m/s 589 mmHg 74%
14:00 +16°C° 0.3 mm 2 m/s 589 mmHg 75%
15:00 +16°C° 0.3 mm 2 m/s 589 mmHg 76%
16:00 +16°C° 0.3 mm 1 m/s 589 mmHg 79%
17:00 +15°C° 0.3 mm 1 m/s 588 mmHg 81%
18:00 +15°C° 0.3 mm 1 m/s 588 mmHg 84%
19:00 +14°C° 0.1 mm 1 m/s 588 mmHg 85%
20:00 +14°C° 0.1 mm 1 m/s 588 mmHg 86%
21:00 +13°C° 0.1 mm 1 m/s 588 mmHg 88%
22:00 +13°C° 0 mm 1 m/s 588 mmHg 88%
23:00 +12°C° 0 mm 2 m/s 588 mmHg 89%

Amanhã, 31 Julho, Sábado

Tempo Temperatura Precipitação Vento Pressão Humidade
00:00 +12°C° 0 mm 2 m/s 588 mmHg 90%
01:00 +12°C° 0 mm 2 m/s 587 mmHg 89%
02:00 +12°C° 0 mm 2 m/s 587 mmHg 88%
03:00 +12°C° 0 mm 1 m/s 587 mmHg 88%
04:00 +12°C° 0 mm 1 m/s 587 mmHg 86%
05:00 +13°C° 0 mm 1 m/s 587 mmHg 84%
06:00 +13°C° 0 mm 1 m/s 588 mmHg 82%
07:00 +15°C° 0 mm 1 m/s 588 mmHg 76%
08:00 +16°C° 0 mm 1 m/s 589 mmHg 70%
09:00 +18°C° 0 mm 2 m/s 589 mmHg 63%
10:00 +18°C° 0.3 mm 2 m/s 589 mmHg 64%
11:00 +18°C° 0.3 mm 2 m/s 589 mmHg 64%
12:00 +18°C° 0.3 mm 2 m/s 589 mmHg 65%
13:00 +18°C° 1.3 mm 2 m/s 589 mmHg 66%
14:00 +18°C° 1.3 mm 2 m/s 589 mmHg 67%
15:00 +18°C° 1.3 mm 2 m/s 589 mmHg 68%
16:00 +18°C° 0.9 mm 1 m/s 589 mmHg 72%
17:00 +16°C° 0.9 mm 1 m/s 589 mmHg 76%
18:00 +16°C° 0.9 mm 1 m/s 589 mmHg 81%
19:00 +15°C° 0.2 mm 1 m/s 589 mmHg 82%
20:00 +14°C° 0.2 mm 1 m/s 589 mmHg 83%
21:00 +13°C° 0.2 mm 2 m/s 589 mmHg 85%
22:00 +13°C° 0.1 mm 1 m/s 588 mmHg 85%
23:00 +13°C° 0.1 mm 1 m/s 588 mmHg 85%

Depois de amanhã, 1 Agosto, Domingo

Tempo Temperatura Precipitação Vento Pressão Humidade
00:00 +13°C° 0.1 mm 1 m/s 588 mmHg 86%
01:00 +12°C° 0 mm 1 m/s 588 mmHg 86%
02:00 +12°C° 0 mm 1 m/s 588 mmHg 86%
03:00 +12°C° 0 mm 1 m/s 588 mmHg 87%
04:00 +12°C° 0 mm 1 m/s 588 mmHg 85%
05:00 +13°C° 0 mm 1 m/s 589 mmHg 83%
06:00 +14°C° 0 mm 1 m/s 589 mmHg 81%
07:00 +15°C° 0 mm 1 m/s 589 mmHg 74%
08:00 +18°C° 0 mm 1 m/s 590 mmHg 68%
09:00 +19°C° 0 mm 1 m/s 590 mmHg 61%
10:00 +20°C° 0.6 mm 1 m/s 590 mmHg 61%
11:00 +19°C° 0.6 mm 2 m/s 590 mmHg 62%
12:00 +19°C° 0.6 mm 2 m/s 590 mmHg 62%
13:00 +19°C° 1.8 mm 2 m/s 590 mmHg 64%
14:00 +19°C° 1.8 mm 2 m/s 590 mmHg 66%
15:00 +19°C° 1.8 mm 1 m/s 590 mmHg 69%
16:00 +18°C° 1.7 mm 1 m/s 590 mmHg 74%
17:00 +16°C° 1.7 mm 1 m/s 590 mmHg 79%
18:00 +16°C° 1.7 mm 1 m/s 590 mmHg 84%
19:00 +15°C° 0.9 mm 1 m/s 589 mmHg 85%
20:00 +14°C° 0.9 mm 2 m/s 589 mmHg 86%
21:00 +14°C° 0.9 mm 2 m/s 589 mmHg 88%
22:00 +14°C° 0.5 mm 2 m/s 589 mmHg 87%
23:00 +13°C° 0.5 mm 2 m/s 589 mmHg 87%

2 Agosto, Segunda-feira

Tempo Temperatura Precipitação Vento Pressão Humidade
00:00 +13°C° 0.5 mm 2 m/s 589 mmHg 86%
01:00 +13°C° 0 mm 2 m/s 589 mmHg 86%
02:00 +12°C° 0 mm 2 m/s 588 mmHg 86%
03:00 +12°C° 0 mm 2 m/s 588 mmHg 85%
04:00 +12°C° 0 mm 2 m/s 588 mmHg 85%
05:00 +13°C° 0 mm 2 m/s 589 mmHg 84%
06:00 +13°C° 0 mm 2 m/s 589 mmHg 83%
07:00 +15°C° 0 mm 2 m/s 590 mmHg 75%
08:00 +16°C° 0 mm 2 m/s 590 mmHg 66%
09:00 +19°C° 0 mm 1 m/s 591 mmHg 58%
10:00 +19°C° 0.4 mm 1 m/s 591 mmHg 60%
11:00 +19°C° 0.4 mm 1 m/s 591 mmHg 61%
12:00 +19°C° 0.4 mm 1 m/s 591 mmHg 62%
13:00 +19°C° 0.9 mm 1 m/s 590 mmHg 66%
14:00 +17°C° 0.9 mm 2 m/s 590 mmHg 70%
15:00 +16°C° 0.9 mm 2 m/s 590 mmHg 73%
16:00 +16°C° 0.2 mm 1 m/s 590 mmHg 75%
17:00 +16°C° 0.2 mm 1 m/s 590 mmHg 76%
18:00 +16°C° 0.2 mm 1 m/s 590 mmHg 78%
19:00 +15°C° 0 mm 1 m/s 590 mmHg 78%
20:00 +15°C° 0 mm 2 m/s 590 mmHg 77%
21:00 +14°C° 0 mm 2 m/s 590 mmHg 77%
22:00 +14°C° 0 mm 2 m/s 590 mmHg 76%
23:00 +14°C° 0 mm 2 m/s 590 mmHg 75%

3 Agosto, Terça-feira

Tempo Temperatura Precipitação Vento Pressão Humidade
00:00 +14°C° 0 mm 2 m/s 590 mmHg 73%
01:00 +13°C° 0 mm 2 m/s 589 mmHg 72%
02:00 +13°C° 0 mm 2 m/s 589 mmHg 71%
03:00 +11°C° 0 mm 3 m/s 589 mmHg 71%
04:00 +13°C° 0 mm 2 m/s 589 mmHg 70%
05:00 +13°C° 0 mm 2 m/s 589 mmHg 69%
06:00 +14°C° 0 mm 2 m/s 590 mmHg 69%
07:00 +16°C° 0 mm 2 m/s 590 mmHg 63%
08:00 +18°C° 0 mm 1 m/s 591 mmHg 57%
09:00 +20°C° 0 mm 1 m/s 591 mmHg 52%
10:00 +21°C° 0.1 mm 1 m/s 592 mmHg 51%
11:00 +21°C° 0.1 mm 1 m/s 592 mmHg 51%
12:00 +21°C° 0.1 mm 2 m/s 592 mmHg 51%
13:00 +21°C° 0.4 mm 1 m/s 592 mmHg 54%
14:00 +21°C° 0.4 mm 1 m/s 591 mmHg 56%
15:00 +21°C° 0.4 mm 1 m/s 591 mmHg 59%
16:00 +20°C° 0.5 mm 1 m/s 591 mmHg 62%
17:00 +20°C° 0.5 mm 1 m/s 591 mmHg 65%
18:00 +19°C° 0.5 mm 1 m/s 591 mmHg 68%
19:00 +18°C° 0.1 mm 1 m/s 591 mmHg 71%
20:00 +15°C° 0.1 mm 1 m/s 591 mmHg 74%
21:00 +14°C° 0.1 mm 2 m/s 590 mmHg 76%
22:00 +14°C° 0 mm 2 m/s 590 mmHg 76%
23:00 +13°C° 0 mm 2 m/s 590 mmHg 75%

4 Agosto, Quarta-feira

Tempo Temperatura Precipitação Vento Pressão Humidade
00:00 +13°C° 0 mm 2 m/s 590 mmHg 75%
01:00 +13°C° 0 mm 2 m/s 590 mmHg 75%
02:00 +13°C° 0 mm 2 m/s 590 mmHg 75%
03:00 +12°C° 0 mm 2 m/s 590 mmHg 75%
04:00 +13°C° 0 mm 2 m/s 590 mmHg 75%
05:00 +14°C° 0 mm 1 m/s 591 mmHg 75%
06:00 +15°C° 0 mm 1 m/s 592 mmHg 74%
07:00 +18°C° 0 mm 1 m/s 592 mmHg 68%
08:00 +19°C° 0 mm 1 m/s 593 mmHg 62%
09:00 +21°C° 0 mm 1 m/s 593 mmHg 56%
10:00 +21°C° 0.5 mm 1 m/s 593 mmHg 56%
11:00 +21°C° 0.5 mm 1 m/s 593 mmHg 57%
12:00 +21°C° 0.5 mm 2 m/s 593 mmHg 57%
13:00 +20°C° 0.9 mm 2 m/s 593 mmHg 59%
14:00 +21°C° 0.9 mm 1 m/s 593 mmHg 61%
15:00 +21°C° 0.9 mm 1 m/s 593 mmHg 63%
16:00 +19°C° 1.1 mm 2 m/s 593 mmHg 68%
17:00 +18°C° 1.1 mm 2 m/s 593 mmHg 73%
18:00 +17°C° 1.1 mm 2 m/s 593 mmHg 79%
19:00 +16°C° 0.4 mm 2 m/s 593 mmHg 83%
20:00 +14°C° 0.4 mm 2 m/s 593 mmHg 87%
21:00 +13°C° 0.4 mm 2 m/s 592 mmHg 91%
22:00 +13°C° 0 mm 2 m/s 592 mmHg 86%
23:00 +13°C° 0 mm 2 m/s 592 mmHg 81%
Mostrar mais

Necessitamos do seu Consentimento

A Meteoprog e os seus Fornecedores de Serviços podem armazenar e aceder a dados pessoais como cookies, identificadores do dispositivo ou outras tecnologias semelhantes existentes no seu dispositivo e processar estes dados para personalizar conteúdos e anúncios, assim como funcionalidades nas redes sociais e análise de tráfego.

  • Armazenar e/ou aceder a informações no seu dispositivo

    Os cookies, identificadores do dispositivo ou outras informações podem ser armazenados ou acedidos no seu dispositivo, para os fins acima indicados.

  • Anúncios e conteúdos personalizados, medição de anúncios e conteúdos, dados sobre o público-alvo e desenvolvimento de produtos

    Os anúncios e os conteúdos podem ser personalizados com base num perfil. Podem ser adicionados dados adicionais para uma maior personalização dos anúncios e dos conteúdos. A eficácia dos anúncios e dos conteúdos pode ser medida. Podem ser obtidas informações sobre o público que visualizou os anúncios e os conteúdos. Estes dados podem ser usados para desenvolver ou melhorar sistemas, softwares ou a experiência do utilizador.

Ao clicar em "Eu concordo”, permitirá o uso de cookies, identificadores do dispositivo e web beacons mencionados ou outras tecnologias semelhantes. As configurações do navegador do seu dispositivo podem ser alteradas.

Para certos fins, podem ser invocados interesses legítimos ao invés de consentimento. Pode ler mais informação sobre este assunto na nossa Política de Privacidade e Cookies.